• In Lithuania
  • List of Countries
  • For 7 days
  • Water Temperature
  • Satellite Maps
  • Weather Map
  • Weather Widgets
  • user-avatar
    Login

    Hourly Weather Nakhchivan

    Today, 21 November, Tuesday

    Time Temperature Precipitation Wind Pressure Humidity
    00:00 +12°C° 0 mm 2 mps 684 mmHg 55%
    01:00 +10°C° 0 mm 2 mps 684 mmHg 56%
    02:00 +10°C° 0 mm 2 mps 684 mmHg 57%
    03:00 +10°C° 0 mm 2 mps 683 mmHg 58%
    04:00 +10°C° 0 mm 2 mps 683 mmHg 60%
    05:00 +10°C° 0 mm 2 mps 683 mmHg 61%
    06:00 +10°C° 0 mm 2 mps 682 mmHg 63%
    07:00 +10°C° 0.1 mm 2 mps 682 mmHg 61%
    08:00 +12°C° 0.1 mm 2 mps 682 mmHg 59%
    09:00 +13°C° 0.1 mm 2 mps 682 mmHg 57%
    10:00 +13°C° 0.5 mm 2 mps 682 mmHg 59%
    11:00 +14°C° 0.5 mm 2 mps 681 mmHg 61%
    12:00 +14°C° 0.5 mm 2 mps 681 mmHg 63%
    13:00 +14°C° 0.2 mm 2 mps 681 mmHg 62%
    14:00 +15°C° 0.2 mm 2 mps 681 mmHg 61%
    15:00 +14°C° 0.2 mm 3 mps 681 mmHg 59%
    16:00 +14°C° 0 mm 2 mps 680 mmHg 63%
    17:00 +13°C° 0 mm 2 mps 680 mmHg 66%
    18:00 +13°C° 0 mm 2 mps 680 mmHg 69%
    19:00 +12°C° 0 mm 2 mps 680 mmHg 70%
    20:00 +12°C° 0 mm 2 mps 679 mmHg 70%
    21:00 +12°C° 0 mm 2 mps 679 mmHg 71%
    22:00 +12°C° 0 mm 2 mps 679 mmHg 72%
    23:00 +10°C° 0 mm 3 mps 679 mmHg 73%

    Tomorrow, 22 November, Wednesday

    Time Temperature Precipitation Wind Pressure Humidity
    00:00 +10°C° 0 mm 3 mps 679 mmHg 74%
    01:00 +10°C° 0 mm 3 mps 678 mmHg 75%
    02:00 +10°C° 0 mm 3 mps 678 mmHg 76%
    03:00 +9°C° 0 mm 3 mps 678 mmHg 76%
    04:00 +9°C° 0 mm 3 mps 678 mmHg 77%
    05:00 +9°C° 0 mm 3 mps 678 mmHg 77%
    06:00 +9°C° 0 mm 3 mps 678 mmHg 77%
    07:00 +9°C° 0.1 mm 3 mps 678 mmHg 73%
    08:00 +10°C° 0.1 mm 3 mps 678 mmHg 70%
    09:00 +11°C° 0.1 mm 3 mps 678 mmHg 66%
    10:00 +11°C° 0.3 mm 3 mps 678 mmHg 64%
    11:00 +12°C° 0.3 mm 3 mps 678 mmHg 63%
    12:00 +12°C° 0.3 mm 3 mps 678 mmHg 61%
    13:00 +12°C° 0.4 mm 3 mps 678 mmHg 59%
    14:00 +12°C° 0.4 mm 3 mps 678 mmHg 57%
    15:00 +12°C° 0.4 mm 3 mps 678 mmHg 55%
    16:00 +10°C° 0.1 mm 3 mps 679 mmHg 60%
    17:00 +9°C° 0.1 mm 2 mps 679 mmHg 65%
    18:00 +8°C° 0.1 mm 2 mps 680 mmHg 70%
    19:00 +8°C° 0.2 mm 2 mps 680 mmHg 70%
    20:00 +8°C° 0.2 mm 2 mps 681 mmHg 71%
    21:00 +7°C° 0.2 mm 2 mps 681 mmHg 72%
    22:00 +7°C° 0.1 mm 2 mps 681 mmHg 70%
    23:00 +6°C° 0.1 mm 2 mps 682 mmHg 68%

    Day after tomorrow, 23 November, Thursday

    Time Temperature Precipitation Wind Pressure Humidity
    00:00 +4°C° 0.1 mm 3 mps 682 mmHg 66%
    01:00 +4°C° 0.1 mm 3 mps 682 mmHg 66%
    02:00 +3°C° 0.1 mm 3 mps 682 mmHg 66%
    03:00 +4°C° 0.1 mm 2 mps 682 mmHg 66%
    04:00 +4°C° 0.1 mm 2 mps 683 mmHg 68%
    05:00 +3°C° 0.1 mm 2 mps 683 mmHg 70%
    06:00 +3°C° 0.1 mm 2 mps 683 mmHg 71%
    07:00 +3°C° 0 mm 2 mps 684 mmHg 68%
    08:00 +3°C° 0 mm 2 mps 684 mmHg 65%
    09:00 +4°C° 0 mm 2 mps 685 mmHg 62%
    10:00 +4°C° 0 mm 2 mps 684 mmHg 58%
    11:00 +5°C° 0 mm 2 mps 684 mmHg 53%
    12:00 +6°C° 0 mm 2 mps 684 mmHg 48%
    13:00 +6°C° 0 mm 2 mps 684 mmHg 46%
    14:00 +7°C° 0 mm 2 mps 683 mmHg 44%
    15:00 +7°C° 0 mm 3 mps 683 mmHg 41%
    16:00 +7°C° 0 mm 2 mps 684 mmHg 44%
    17:00 +6°C° 0 mm 2 mps 684 mmHg 47%
    18:00 +5°C° 0 mm 2 mps 684 mmHg 49%
    19:00 +5°C° 0 mm 2 mps 684 mmHg 50%
    20:00 +5°C° 0 mm 2 mps 685 mmHg 51%
    21:00 +5°C° 0 mm 2 mps 685 mmHg 52%
    22:00 +5°C° 0 mm 2 mps 685 mmHg 53%
    23:00 +6°C° 0 mm 1 mps 685 mmHg 54%

    24 November, Friday

    Time Temperature Precipitation Wind Pressure Humidity
    00:00 +5°C° 0 mm 1 mps 685 mmHg 54%
    01:00 +5°C° 0 mm 1 mps 684 mmHg 56%
    02:00 +5°C° 0 mm 1 mps 684 mmHg 58%
    03:00 +4°C° 0 mm 1 mps 684 mmHg 60%
    04:00 +3°C° 0.3 mm 2 mps 684 mmHg 66%
    05:00 +2°C° 0.3 mm 2 mps 684 mmHg 72%
    06:00 +2°C° 0.3 mm 2 mps 685 mmHg 78%
    07:00 +2°C° 0.5 mm 2 mps 685 mmHg 79%
    08:00 +2°C° 0.5 mm 2 mps 686 mmHg 81%
    09:00 +2°C° 0.5 mm 2 mps 686 mmHg 83%
    10:00 +2°C° 0.3 mm 2 mps 686 mmHg 79%
    11:00 +2°C° 0.3 mm 2 mps 686 mmHg 76%
    12:00 +2°C° 0.3 mm 2 mps 686 mmHg 72%
    13:00 +3°C° 0.1 mm 2 mps 686 mmHg 69%
    14:00 +3°C° 0.1 mm 2 mps 686 mmHg 66%
    15:00 +4°C° 0.1 mm 1 mps 686 mmHg 63%
    16:00 +3°C° 0 mm 1 mps 686 mmHg 65%
    17:00 +2°C° 0 mm 1 mps 687 mmHg 68%
    18:00 +1°C° 0 mm 1 mps 687 mmHg 70%
    19:00 +1°C° 0 mm 1 mps 688 mmHg 69%
    20:00 +1°C° 0 mm 1 mps 688 mmHg 68%
    21:00 +1°C° 0 mm 1 mps 688 mmHg 67%
    22:00 0°C° 0 mm 1 mps 689 mmHg 66%
    23:00 0°C° 0 mm 1 mps 689 mmHg 64%

    25 November, Saturday

    Time Temperature Precipitation Wind Pressure Humidity
    00:00 0°C° 0 mm 1 mps 689 mmHg 63%
    01:00 0°C° 0 mm 1 mps 689 mmHg 64%
    02:00 0°C° 0 mm 1 mps 689 mmHg 64%
    03:00 -1°C° 0 mm 1 mps 689 mmHg 64%
    04:00 -1°C° 0 mm 1 mps 690 mmHg 64%
    05:00 -1°C° 0 mm 1 mps 690 mmHg 65%
    06:00 -1°C° 0 mm 1 mps 690 mmHg 65%
    07:00 0°C° 0 mm 1 mps 691 mmHg 62%
    08:00 -2°C° 0 mm 2 mps 691 mmHg 59%
    09:00 -1°C° 0 mm 2 mps 692 mmHg 56%
    10:00 -1°C° 0 mm 2 mps 691 mmHg 54%
    11:00 +1°C° 0 mm 2 mps 691 mmHg 51%
    12:00 +1°C° 0 mm 2 mps 691 mmHg 48%
    13:00 +1°C° 0 mm 2 mps 691 mmHg 47%
    14:00 +2°C° 0 mm 2 mps 691 mmHg 47%
    15:00 +2°C° 0 mm 2 mps 691 mmHg 46%
    16:00 +1°C° 0 mm 2 mps 692 mmHg 49%
    17:00 +1°C° 0 mm 1 mps 692 mmHg 51%
    18:00 0°C° 0 mm 1 mps 693 mmHg 54%
    19:00 0°C° 0 mm 1 mps 693 mmHg 54%
    20:00 -1°C° 0 mm 1 mps 694 mmHg 54%
    21:00 -1°C° 0 mm 1 mps 694 mmHg 54%
    22:00 -1°C° 0 mm 1 mps 694 mmHg 53%
    23:00 -1°C° 0 mm 1 mps 694 mmHg 53%

    26 November, Sunday

    Time Temperature Precipitation Wind Pressure Humidity
    00:00 -1°C° 0 mm 1 mps 694 mmHg 53%
    01:00 -1°C° 0 mm 1 mps 694 mmHg 53%
    02:00 -2°C° 0 mm 1 mps 695 mmHg 53%
    03:00 -2°C° 0 mm 1 mps 695 mmHg 53%
    04:00 -2°C° 0 mm 1 mps 695 mmHg 54%
    05:00 -2°C° 0 mm 1 mps 695 mmHg 54%
    06:00 -2°C° 0 mm 1 mps 694 mmHg 54%
    07:00 -1°C° 0 mm 1 mps 695 mmHg 52%
    08:00 0°C° 0 mm 1 mps 695 mmHg 49%
    09:00 +1°C° 0 mm 1 mps 695 mmHg 47%
    10:00 +1°C° 0 mm 1 mps 694 mmHg 45%
    11:00 +2°C° 0 mm 1 mps 694 mmHg 44%
    12:00 +3°C° 0 mm 1 mps 693 mmHg 42%
    13:00 +3°C° 0 mm 1 mps 693 mmHg 43%
    14:00 +4°C° 0 mm 1 mps 693 mmHg 43%
    15:00 +4°C° 0 mm 1 mps 692 mmHg 44%
    16:00 +3°C° 0 mm 1 mps 693 mmHg 47%
    17:00 +1°C° 0 mm 1 mps 693 mmHg 51%
    18:00 0°C° 0 mm 1 mps 693 mmHg 54%
    19:00 0°C° 0 mm 1 mps 693 mmHg 53%
    20:00 0°C° 0 mm 1 mps 693 mmHg 52%
    21:00 0°C° 0 mm 1 mps 693 mmHg 51%
    22:00 0°C° 0 mm 1 mps 693 mmHg 50%
    23:00 0°C° 0 mm 1 mps 693 mmHg 49%
    Show more